Time,TemperatureF,DewpointF,PressureIn,WindDirection,WindDirectionDegrees,WindSpeedMPH,WindSpeedGustMPH,Humidity,HourlyPrecipIn,Conditions,Clouds,dailyrainin,SoftwareType,DateUTC
2013-09-21 00:04:00,63.0,59.0,29.74,SW,231,1.0,2.0,86,0.00,,,0.00,weatherlink.com 1.10,2013-09-21 04:04:00,
2013-09-21 00:19:00,62.8,59.0,29.74,WSW,250,0.0,2.0,86,0.00,,,0.00,weatherlink.com 1.10,2013-09-21 04:19:00,
2013-09-21 00:36:00,62.5,58.0,29.74,West,263,0.0,1.0,86,0.00,,,0.00,weatherlink.com 1.10,2013-09-21 04:36:00,
2013-09-21 00:49:00,62.0,58.0,29.74,West,263,0.0,0.0,87,0.00,,,0.00,weatherlink.com 1.10,2013-09-21 04:49:00,
2013-09-21 01:04:00,61.6,58.0,29.73,SSW,211,1.0,1.0,87,0.00,,,0.00,weatherlink.com 1.10,2013-09-21 05:04:00,
2013-09-21 01:19:00,61.2,57.0,29.73,West,276,0.0,1.0,87,0.00,,,0.00,weatherlink.com 1.10,2013-09-21 05:19:00,
2013-09-21 01:34:00,61.0,57.0,29.73,WNW,285,2.0,2.0,87,0.00,,,0.00,weatherlink.com 1.10,2013-09-21 05:34:00,
2013-09-21 01:49:00,60.8,57.0,29.73,WNW,283,1.0,2.0,87,0.00,,,0.00,weatherlink.com 1.10,2013-09-21 05:49:00,
2013-09-21 02:04:00,60.8,57.0,29.73,WNW,300,2.0,4.0,87,0.00,,,0.00,weatherlink.com 1.10,2013-09-21 06:04:00,
2013-09-21 02:19:00,60.8,57.0,29.73,WNW,288,1.0,3.0,87,0.00,,,0.00,weatherlink.com 1.10,2013-09-21 06:19:00,
2013-09-21 02:34:00,60.7,57.0,29.73,West,281,1.0,4.0,87,0.00,,,0.00,weatherlink.com 1.10,2013-09-21 06:34:00,
2013-09-21 02:49:00,60.5,57.0,29.73,WNW,295,1.0,5.0,87,0.00,,,0.00,weatherlink.com 1.10,2013-09-21 06:49:00,
2013-09-21 03:04:00,60.5,57.0,29.72,WNW,285,2.0,4.0,87,0.00,,,0.00,weatherlink.com 1.10,2013-09-21 07:04:00,
2013-09-21 03:19:00,60.7,57.0,29.72,WNW,284,1.0,4.0,87,0.00,,,0.00,weatherlink.com 1.10,2013-09-21 07:19:00,
2013-09-21 03:34:00,60.6,57.0,29.72,WSW,245,1.0,2.0,87,0.00,,,0.00,weatherlink.com 1.10,2013-09-21 07:34:00,
2013-09-21 03:49:00,60.1,56.0,29.71,West,266,0.0,2.0,87,0.00,,,0.00,weatherlink.com 1.10,2013-09-21 07:49:00,
2013-09-21 04:04:00,59.7,56.0,29.71,West,270,0.0,1.0,87,0.00,,,0.00,weatherlink.com 1.10,2013-09-21 08:04:00,
2013-09-21 04:19:00,59.5,56.0,29.71,SW,226,0.0,1.0,87,0.00,,,0.00,weatherlink.com 1.10,2013-09-21 08:19:00,
2013-09-21 04:34:00,59.4,56.0,29.70,WSW,257,0.0,1.0,87,0.00,,,0.00,weatherlink.com 1.10,2013-09-21 08:34:00,
2013-09-21 04:49:00,59.1,55.0,29.70,WSW,253,0.0,0.0,87,0.00,,,0.00,weatherlink.com 1.10,2013-09-21 08:49:00,
2013-09-21 05:04:00,58.8,55.0,29.71,WNW,293,0.0,3.0,86,0.00,,,0.00,weatherlink.com 1.10,2013-09-21 09:04:00,
2013-09-21 05:19:00,59.1,55.0,29.71,West,264,1.0,5.0,87,0.00,,,0.00,weatherlink.com 1.10,2013-09-21 09:19:00,
2013-09-21 05:34:00,58.8,55.0,29.71,WNW,294,0.0,4.0,87,0.00,,,0.00,weatherlink.com 1.10,2013-09-21 09:34:00,
2013-09-21 05:49:00,58.8,55.0,29.71,NW,314,1.0,3.0,87,0.00,,,0.00,weatherlink.com 1.10,2013-09-21 09:49:00,
2013-09-21 06:04:00,59.0,56.0,29.72,NW,316,1.0,4.0,88,0.00,,,0.00,weatherlink.com 1.10,2013-09-21 10:04:00,
2013-09-21 06:19:00,58.9,55.0,29.72,NW,313,0.0,3.0,87,0.00,,,0.00,weatherlink.com 1.10,2013-09-21 10:19:00,
2013-09-21 06:34:00,58.6,55.0,29.73,NNW,334,2.0,6.0,87,0.00,,,0.00,weatherlink.com 1.10,2013-09-21 10:34:00,
2013-09-21 06:49:00,58.1,54.0,29.73,NW,326,1.0,3.0,87,0.00,,,0.00,weatherlink.com 1.10,2013-09-21 10:49:00,
2013-09-21 07:04:00,57.6,54.0,29.73,WNW,298,0.0,5.0,87,0.00,,,0.00,weatherlink.com 1.10,2013-09-21 11:04:00,
2013-09-21 07:19:00,57.2,53.0,29.74,West,278,0.0,3.0,87,0.00,,,0.00,weatherlink.com 1.10,2013-09-21 11:19:00,
2013-09-21 07:34:00,56.8,53.0,29.75,WNW,302,1.0,9.0,87,0.00,,,0.00,weatherlink.com 1.10,2013-09-21 11:34:00,
2013-09-21 07:49:00,56.6,53.0,29.75,West,265,1.0,3.0,87,0.00,,,0.00,weatherlink.com 1.10,2013-09-21 11:49:00,
2013-09-21 08:04:00,56.4,53.0,29.76,NNW,335,0.0,3.0,87,0.00,,,0.00,weatherlink.com 1.10,2013-09-21 12:04:00,
2013-09-21 08:19:00,56.5,53.0,29.76,WNW,292,2.0,3.0,87,0.00,,,0.00,weatherlink.com 1.10,2013-09-21 12:19:00,
2013-09-21 08:34:00,56.6,53.0,29.76,WNW,287,1.0,6.0,87,0.00,,,0.00,weatherlink.com 1.10,2013-09-21 12:34:00,
2013-09-21 08:50:00,56.8,53.0,29.77,NW,322,2.0,3.0,87,0.00,,,0.00,weatherlink.com 1.10,2013-09-21 12:50:00,
2013-09-21 09:05:00,57.3,53.0,29.77,North,359,0.0,8.0,85,0.00,,,0.00,weatherlink.com 1.10,2013-09-21 13:05:00,
2013-09-21 09:20:00,57.9,53.0,29.77,NW,325,2.0,6.0,84,0.00,,,0.00,weatherlink.com 1.10,2013-09-21 13:20:00,
2013-09-21 09:35:00,58.6,53.0,29.78,NNW,338,2.0,9.0,82,0.00,,,0.00,weatherlink.com 1.10,2013-09-21 13:35:00,
2013-09-21 09:50:00,59.0,53.0,29.78,WNW,301,2.0,12.0,81,0.00,,,0.00,weatherlink.com 1.10,2013-09-21 13:50:00,
2013-09-21 10:05:00,59.3,53.0,29.78,NNW,331,2.0,8.0,80,0.00,,,0.00,weatherlink.com 1.10,2013-09-21 14:05:00,
2013-09-21 10:20:00,59.8,53.0,29.79,West,276,2.0,5.0,78,0.00,,,0.00,weatherlink.com 1.10,2013-09-21 14:20:00,
2013-09-21 10:35:00,60.0,52.0,29.79,WNW,288,1.0,10.0,76,0.00,,,0.00,weatherlink.com 1.10,2013-09-21 14:35:00,
2013-09-21 10:50:00,61.5,53.0,29.79,NW,321,1.0,6.0,73,0.00,,,0.00,weatherlink.com 1.10,2013-09-21 14:50:00,
2013-09-21 11:05:00,61.4,52.0,29.79,NW,320,2.0,11.0,70,0.00,,,0.00,weatherlink.com 1.10,2013-09-21 15:05:00,
2013-09-21 11:20:00,62.1,51.0,29.79,NNW,333,1.0,10.0,68,0.00,,,0.00,weatherlink.com 1.10,2013-09-21 15:20:00,
2013-09-21 11:35:00,63.2,51.0,29.79,NNW,328,1.0,8.0,65,0.00,,,0.00,weatherlink.com 1.10,2013-09-21 15:35:00,
2013-09-21 11:50:00,63.0,51.0,29.79,North,350,4.0,7.0,64,0.00,,,0.00,weatherlink.com 1.10,2013-09-21 15:50:00,
2013-09-21 12:05:00,63.8,50.0,29.79,NNW,340,2.0,8.0,61,0.00,,,0.00,weatherlink.com 1.10,2013-09-21 16:05:00,
2013-09-21 12:20:00,62.7,50.0,29.79,NNW,332,2.0,9.0,64,0.00,,,0.00,weatherlink.com 1.10,2013-09-21 16:20:00,
2013-09-21 12:35:00,64.3,51.0,29.79,NNW,335,1.0,4.0,62,0.00,,,0.00,weatherlink.com 1.10,2013-09-21 16:35:00,
2013-09-21 12:50:00,64.1,49.0,29.79,WNW,294,3.0,14.0,58,0.00,,,0.00,weatherlink.com 1.10,2013-09-21 16:50:00,
2013-09-21 13:05:00,63.2,49.0,29.80,WNW,287,3.0,9.0,60,0.00,,,0.00,weatherlink.com 1.10,2013-09-21 17:05:00,
2013-09-21 13:20:00,63.0,48.0,29.80,NNE,25,2.0,11.0,59,0.00,,,0.00,weatherlink.com 1.10,2013-09-21 17:20:00,
2013-09-21 13:35:00,63.3,49.0,29.80,WNW,290,3.0,7.0,61,0.00,,,0.00,weatherlink.com 1.10,2013-09-21 17:35:00,
2013-09-21 13:50:00,62.4,49.0,29.80,NNW,335,3.0,9.0,62,0.00,,,0.00,weatherlink.com 1.10,2013-09-21 17:50:00,
2013-09-21 14:05:00,62.5,50.0,29.80,NNW,341,3.0,10.0,65,0.00,,,0.00,weatherlink.com 1.10,2013-09-21 18:05:00,
2013-09-21 14:20:00,62.1,48.0,29.80,NNW,339,2.0,10.0,61,0.00,,,0.00,weatherlink.com 1.10,2013-09-21 18:20:00,
2013-09-21 14:35:00,63.0,48.0,29.80,NW,314,1.0,11.0,59,0.00,,,0.00,weatherlink.com 1.10,2013-09-21 18:35:00,
2013-09-21 14:50:00,63.2,50.0,29.80,NNW,338,2.0,10.0,63,0.00,,,0.00,weatherlink.com 1.10,2013-09-21 18:50:00,
2013-09-21 15:05:00,62.0,51.0,29.81,NNW,333,1.0,9.0,67,0.00,,,0.00,weatherlink.com 1.10,2013-09-21 19:05:00,
2013-09-21 15:20:00,61.6,50.0,29.81,NNE,18,3.0,6.0,67,0.00,,,0.00,weatherlink.com 1.10,2013-09-21 19:20:00,
2013-09-21 15:35:00,62.2,50.0,29.80,WNW,297,6.0,10.0,64,0.00,,,0.00,weatherlink.com 1.10,2013-09-21 19:35:00,
2013-09-21 15:50:00,61.4,50.0,29.81,West,266,4.0,9.0,66,0.00,,,0.00,weatherlink.com 1.10,2013-09-21 19:50:00,
2013-09-21 16:05:00,61.1,50.0,29.81,NNW,328,2.0,12.0,67,0.00,,,0.00,weatherlink.com 1.10,2013-09-21 20:05:00,
2013-09-21 16:20:00,60.9,51.0,29.82,WNW,290,5.0,12.0,69,0.00,,,0.00,weatherlink.com 1.10,2013-09-21 20:20:00,
2013-09-21 16:35:00,60.7,50.0,29.82,NW,319,3.0,12.0,67,0.00,,,0.00,weatherlink.com 1.10,2013-09-21 20:35:00,
2013-09-21 16:50:00,60.2,50.0,29.82,West,262,4.0,14.0,68,0.00,,,0.00,weatherlink.com 1.10,2013-09-21 20:50:00,
2013-09-21 17:21:00,59.4,49.0,29.83,NNW,340,3.0,13.0,68,0.00,,,0.00,weatherlink.com 1.10,2013-09-21 21:21:00,
2013-09-21 17:36:00,58.9,49.0,29.84,NW,326,1.0,8.0,69,0.00,,,0.00,weatherlink.com 1.10,2013-09-21 21:36:00,
2013-09-21 17:51:00,59.5,50.0,29.84,NNW,333,1.0,7.0,70,0.00,,,0.00,weatherlink.com 1.10,2013-09-21 21:51:00,
2013-09-21 18:06:00,60.0,50.0,29.84,WNW,282,2.0,8.0,69,0.00,,,0.00,weatherlink.com 1.10,2013-09-21 22:06:00,
2013-09-21 18:21:00,58.9,50.0,29.85,NNW,331,0.0,3.0,72,0.00,,,0.00,weatherlink.com 1.10,2013-09-21 22:21:00,
2013-09-21 18:36:00,58.2,50.0,29.85,WNW,295,0.0,2.0,75,0.00,,,0.00,weatherlink.com 1.10,2013-09-21 22:36:00,
2013-09-21 18:51:00,57.8,50.0,29.85,West,269,0.0,2.0,76,0.00,,,0.00,weatherlink.com 1.10,2013-09-21 22:51:00,
2013-09-21 19:06:00,57.7,50.0,29.86,WNW,295,2.0,6.0,76,0.00,,,0.00,weatherlink.com 1.10,2013-09-21 23:06:00,
2013-09-21 19:21:00,57.6,50.0,29.86,NW,320,2.0,4.0,75,0.00,,,0.00,weatherlink.com 1.10,2013-09-21 23:21:00,
2013-09-21 19:36:00,57.4,50.0,29.86,NW,304,0.0,4.0,75,0.00,,,0.00,weatherlink.com 1.10,2013-09-21 23:36:00,
2013-09-21 19:51:00,57.2,49.0,29.86,NW,321,1.0,1.0,75,0.00,,,0.00,weatherlink.com 1.10,2013-09-21 23:51:00,
2013-09-21 20:06:00,56.8,49.0,29.86,West,267,0.0,1.0,76,0.00,,,0.00,weatherlink.com 1.10,2013-09-22 00:06:00,
2013-09-21 20:21:00,56.6,49.0,29.86,NW,304,0.0,3.0,76,0.00,,,0.00,weatherlink.com 1.10,2013-09-22 00:21:00,
2013-09-21 20:36:00,56.5,49.0,29.87,WNW,302,1.0,4.0,76,0.00,,,0.00,weatherlink.com 1.10,2013-09-22 00:36:00,
2013-09-21 20:51:00,56.2,49.0,29.88,NNW,339,2.0,7.0,78,0.00,,,0.00,weatherlink.com 1.10,2013-09-22 00:51:00,
2013-09-21 21:06:00,55.0,49.0,29.89,NW,321,2.0,7.0,81,0.00,,,0.00,weatherlink.com 1.10,2013-09-22 01:06:00,
2013-09-21 21:21:00,54.3,49.0,29.88,NW,326,0.0,2.0,82,0.00,,,0.00,weatherlink.com 1.10,2013-09-22 01:21:00,
2013-09-21 21:36:00,54.0,49.0,29.89,NNW,333,0.0,1.0,82,0.00,,,0.00,weatherlink.com 1.10,2013-09-22 01:36:00,
2013-09-21 21:51:00,53.9,48.0,29.89,NNE,20,0.0,1.0,81,0.00,,,0.00,weatherlink.com 1.10,2013-09-22 01:51:00,
2013-09-21 22:06:00,53.9,48.0,29.89,NE,48,0.0,1.0,81,0.00,,,0.00,weatherlink.com 1.10,2013-09-22 02:06:00,
2013-09-21 22:21:00,53.9,48.0,29.89,NNW,347,0.0,2.0,81,0.00,,,0.00,weatherlink.com 1.10,2013-09-22 02:21:00,
2013-09-21 22:36:00,53.8,48.0,29.90,NE,56,1.0,3.0,81,0.00,,,0.00,weatherlink.com 1.10,2013-09-22 02:36:00,
2013-09-21 22:51:00,53.8,48.0,29.90,NE,46,0.0,2.0,81,0.00,,,0.00,weatherlink.com 1.10,2013-09-22 02:51:00,
2013-09-21 23:06:00,53.8,48.0,29.91,NE,45,0.0,1.0,81,0.00,,,0.00,weatherlink.com 1.10,2013-09-22 03:06:00,
2013-09-21 23:21:00,53.7,48.0,29.91,NE,45,0.0,0.0,81,0.00,,,0.00,weatherlink.com 1.10,2013-09-22 03:21:00,
2013-09-21 23:36:00,53.7,48.0,29.91,NNE,32,0.0,2.0,81,0.00,,,0.00,weatherlink.com 1.10,2013-09-22 03:36:00,
2013-09-21 23:51:00,53.7,48.0,29.92,NE,34,0.0,0.0,82,0.00,,,0.00,weatherlink.com 1.10,2013-09-22 03:51:00,